Francistown, Botswana

9:16 AM CAT on February 07, 2016 (GMT +0200)
Francistown | | Change Station
CLOSE
Current Station
Airport
Location: Francistown,
Elevation: 3281 ft
Nearby Weather Stations

Elev 3281 ft 21.16 °S, 27.48 °E | Updated 16 minutes ago

Mostly Cloudy
Mostly Cloudy
75 °F
Feels Like 75 °F
N
12
Wind Variable Wind from NW

Today
High -- | Low -- °F
--% Chance of Precip.
Yesterday
High -- | Low -- °F
Precip. -- in
Pressure 30.06 in
Visibility 6.2 miles
Clouds Few 2000 ft
Mostly Cloudy 6500 ft
Dew Point 66 °F
Humidity 73%
Rainfall 0.00 in
Snow Depth Not available.
5:55 AM 6:52 PM
Waning Crescent, 2% visible
METAR FBFT 070700Z 32010KT 9999 FEW020 BKN065 24/19 Q1018
Pressure 30.06 in
Visibility 6.2 miles
Clouds Few 2000 ft
Mostly Cloudy 6500 ft
Dew Point 66 °F
Humidity 73%
Rainfall 0.00 in
Snow Depth Not available.
5:55 AM 6:52 PM
Waning Crescent, 2% visible
METAR FBFT 070700Z 32010KT 9999 FEW020 BKN065 24/19 Q1018

10-Day Weather Forecast

No radar image for this location.
×

Almanac

Astronomy

Feb. 07, 2016 Rise Set
Actual Time
Civil Twilight
Nautical Twilight
Astronomical Twilight
Moon
Length of Visible Light
Length of Day
Tomorrow will be .
, % of the Moon is Illuminated

Today's Extremes

Country Highs Country Lows

Community

WunderPhotos

Upload Photos

1,891,174 photos uploaded!

WunderBlog® & News

Nearby

Air Quality

  Air Quality AQ Index Pollutant
Not available.

Snow Depth

Station Depth Elevation

Earthquake Activity

City Distance Mag. Time & Date
Minimum magnitude displayed is 2.5.

Coastal Water Temperatures

Place Temperature

Stations

Nearby Weather Stations

Station Location Temp. Windchill Dew Point Humidity Wind Precip. Elev Updated Type